TimeEST,TemperatureF,Dew PointF,Humidity,Sea Level PressureIn,VisibilityMPH,Wind Direction,Wind SpeedMPH,Gust SpeedMPH,PrecipitationIn,Events,Conditions,WindDirDegrees,DateUTC
12:15 AM,35.6,24.8,65,30.17,10.0,West,3.5,-,N/A,,Clear,270,2012-12-12 05:15:00
12:35 AM,35.6,24.8,65,30.17,10.0,West,4.6,-,N/A,,Clear,270,2012-12-12 05:35:00
12:55 AM,33.8,24.8,70,30.17,10.0,West,5.8,-,N/A,,Clear,280,2012-12-12 05:55:00
1:15 AM,33.8,24.8,70,30.18,10.0,West,3.5,-,N/A,,Clear,270,2012-12-12 06:15:00
1:35 AM,33.8,24.8,70,30.20,10.0,West,3.5,-,N/A,,Clear,270,2012-12-12 06:35:00
1:55 AM,33.8,24.8,70,30.20,10.0,West,3.5,-,N/A,,Clear,270,2012-12-12 06:55:00
2:15 AM,33.8,24.8,70,30.21,10.0,West,3.5,-,N/A,,Clear,270,2012-12-12 07:15:00
2:55 AM,32.0,24.8,75,30.22,10.0,West,4.6,-,N/A,,Clear,260,2012-12-12 07:55:00
3:15 AM,32.0,24.8,75,30.22,10.0,West,3.5,-,N/A,,Clear,260,2012-12-12 08:15:00
3:35 AM,32.0,24.8,75,30.22,10.0,West,4.6,-,N/A,,Clear,260,2012-12-12 08:35:00
3:55 AM,32.0,24.8,75,30.23,10.0,West,4.6,-,N/A,,Clear,270,2012-12-12 08:55:00
4:15 AM,32.0,24.8,75,30.24,10.0,West,4.6,-,N/A,,Clear,260,2012-12-12 09:15:00
4:55 AM,32.0,24.8,75,30.26,10.0,WSW,4.6,-,N/A,,Clear,250,2012-12-12 09:55:00
5:15 AM,32.0,24.8,75,30.27,10.0,WSW,4.6,-,N/A,,Clear,250,2012-12-12 10:15:00
5:35 AM,32.0,24.8,75,30.28,10.0,West,4.6,-,N/A,,Clear,260,2012-12-12 10:35:00
5:55 AM,32.0,24.8,75,30.30,10.0,West,4.6,-,N/A,,Clear,260,2012-12-12 10:55:00
6:35 AM,30.2,24.8,80,30.31,10.0,WSW,3.5,-,N/A,,Clear,250,2012-12-12 11:35:00
6:55 AM,30.2,24.8,80,30.32,10.0,Calm,Calm,-,N/A,,Clear,0,2012-12-12 11:55:00
7:15 AM,30.2,26.6,86,30.33,10.0,Calm,Calm,-,N/A,,Clear,0,2012-12-12 12:15:00
7:35 AM,30.2,26.6,86,30.34,10.0,WSW,3.5,-,N/A,,Clear,250,2012-12-12 12:35:00
7:55 AM,32.0,26.6,80,30.34,10.0,West,3.5,-,N/A,,Clear,260,2012-12-12 12:55:00
8:15 AM,32.0,26.6,80,30.34,10.0,West,4.6,-,N/A,,Clear,280,2012-12-12 13:15:00
8:35 AM,33.8,26.6,75,30.35,10.0,NW,5.8,-,N/A,,Clear,310,2012-12-12 13:35:00
8:55 AM,35.6,24.8,65,30.35,10.0,NW,5.8,-,N/A,,Clear,310,2012-12-12 13:55:00
9:15 AM,35.6,24.8,65,30.36,10.0,NW,6.9,-,N/A,,Clear,320,2012-12-12 14:15:00
9:35 AM,35.6,24.8,65,30.37,10.0,NW,6.9,16.1,N/A,,Clear,320,2012-12-12 14:35:00
9:55 AM,35.6,24.8,65,30.37,10.0,NW,9.2,-,N/A,,Clear,310,2012-12-12 14:55:00
10:15 AM,37.4,24.8,60,30.38,10.0,NW,5.8,-,N/A,,Clear,310,2012-12-12 15:15:00
10:35 AM,37.4,24.8,60,30.37,10.0,NW,10.4,-,N/A,,Clear,320,2012-12-12 15:35:00
10:55 AM,37.4,24.8,60,30.36,10.0,NW,6.9,-,N/A,,Clear,320,2012-12-12 15:55:00
11:15 AM,37.4,24.8,60,30.36,10.0,NW,8.1,-,N/A,,Clear,310,2012-12-12 16:15:00
11:35 AM,37.4,23.0,56,30.36,10.0,NNW,5.8,-,N/A,,Clear,340,2012-12-12 16:35:00
11:55 AM,37.4,23.0,56,30.35,10.0,NW,5.8,-,N/A,,Clear,320,2012-12-12 16:55:00
12:15 PM,39.2,23.0,52,30.35,10.0,North,5.8,-,N/A,,Clear,360,2012-12-12 17:15:00
12:35 PM,39.2,23.0,52,30.35,10.0,WNW,4.6,-,N/A,,Clear,300,2012-12-12 17:35:00
12:55 PM,39.2,23.0,52,30.35,10.0,WNW,3.5,-,N/A,,Clear,290,2012-12-12 17:55:00
1:15 PM,39.2,23.0,52,30.34,10.0,West,5.8,-,N/A,,Clear,280,2012-12-12 18:15:00
1:35 PM,39.2,23.0,52,30.35,10.0,WSW,3.5,-,N/A,,Clear,250,2012-12-12 18:35:00
1:55 PM,39.2,23.0,52,30.34,10.0,WNW,4.6,-,N/A,,Clear,300,2012-12-12 18:55:00
2:15 PM,39.2,21.2,49,30.34,10.0,West,5.8,-,N/A,,Clear,280,2012-12-12 19:15:00
2:35 PM,39.2,21.2,49,30.34,10.0,West,5.8,-,N/A,,Clear,270,2012-12-12 19:35:00
2:55 PM,39.2,21.2,49,30.35,10.0,Calm,Calm,-,N/A,,Clear,0,2012-12-12 19:55:00
3:15 PM,39.2,23.0,52,30.36,10.0,Calm,Calm,-,N/A,,Clear,0,2012-12-12 20:15:00
3:35 PM,39.2,23.0,52,30.37,10.0,West,4.6,-,N/A,,Clear,270,2012-12-12 20:35:00
4:15 PM,35.6,26.6,70,30.38,10.0,Calm,Calm,-,N/A,,Clear,0,2012-12-12 21:15:00
4:35 PM,35.6,26.6,70,30.39,10.0,Calm,Calm,-,N/A,,Clear,0,2012-12-12 21:35:00
4:55 PM,33.8,28.4,81,30.39,10.0,West,3.5,-,N/A,,Clear,270,2012-12-12 21:55:00
5:15 PM,33.8,26.6,75,30.39,10.0,Calm,Calm,-,N/A,,Clear,0,2012-12-12 22:15:00
5:35 PM,32.0,26.6,80,30.39,10.0,Calm,Calm,-,N/A,,Clear,0,2012-12-12 22:35:00
5:55 PM,32.0,26.6,80,30.40,10.0,Calm,Calm,-,N/A,,Clear,0,2012-12-12 22:55:00
6:15 PM,32.0,28.4,87,30.40,10.0,Calm,Calm,-,N/A,,Clear,0,2012-12-12 23:15:00
6:55 PM,32.0,28.4,87,30.42,10.0,SW,3.5,-,N/A,,Clear,220,2012-12-12 23:55:00
7:15 PM,32.0,28.4,87,30.41,10.0,SW,3.5,-,N/A,,Clear,230,2012-12-13 00:15:00
7:35 PM,32.0,28.4,87,30.42,10.0,SW,3.5,-,N/A,,Clear,230,2012-12-13 00:35:00
7:55 PM,32.0,28.4,87,30.41,10.0,West,3.5,-,N/A,,Clear,270,2012-12-13 00:55:00
8:15 PM,32.0,28.4,87,30.42,10.0,Calm,Calm,-,N/A,,Clear,0,2012-12-13 01:15:00
8:35 PM,32.0,28.4,87,30.41,10.0,Calm,Calm,-,N/A,,Clear,0,2012-12-13 01:35:00
8:55 PM,32.0,28.4,87,30.41,10.0,Calm,Calm,-,N/A,,Clear,0,2012-12-13 01:55:00
9:15 PM,32.0,28.4,87,30.41,10.0,SW,3.5,-,N/A,,Clear,220,2012-12-13 02:15:00
9:35 PM,32.0,28.4,87,30.43,10.0,Calm,Calm,-,N/A,,Clear,0,2012-12-13 02:35:00
9:55 PM,32.0,28.4,87,30.44,10.0,SW,3.5,-,N/A,,Clear,230,2012-12-13 02:55:00
10:15 PM,32.0,28.4,87,30.44,10.0,SW,3.5,-,N/A,,Clear,230,2012-12-13 03:15:00
10:35 PM,32.0,28.4,87,30.44,10.0,SW,3.5,-,N/A,,Clear,230,2012-12-13 03:35:00
10:55 PM,32.0,26.6,80,30.43,10.0,WSW,3.5,-,N/A,,Clear,240,2012-12-13 03:55:00
11:15 PM,32.0,28.4,87,30.43,10.0,WSW,3.5,-,N/A,,Clear,240,2012-12-13 04:15:00
11:35 PM,32.0,28.4,87,30.43,10.0,WSW,3.5,-,N/A,,Clear,250,2012-12-13 04:35:00
11:55 PM,32.0,28.4,87,30.42,10.0,WSW,3.5,-,N/A,,Clear,250,2012-12-13 04:55:00